{"data":{"norad_id":53037,"intl_designator":"2022-076BD","name":"STARLINK-4153","alt_names":[],"object_type":"PAYLOAD","status":"ACTIVE","operator":null,"country":"US","launch_date":"2022-07-07","launch_site_code":"AFETR","launch_vehicle":null,"mission":null,"orbit_class":"UNKNOWN","rcs_meters":null,"size_class":null,"mass_kg":null,"dimensions":null,"purposes":["comms"],"wikipedia_slug":null,"has_3d_model":false,"image_url":null,"decayed_at":null,"tle_current":{"epoch":"2026-05-25T02:49:18.643296Z","epoch_age_seconds":73811,"freshness":"FRESH","line1":"1 53037U 22076BD  26145.11757689 -.00002615  00000+0 -14632-3 0  9991","line2":"2 53037  53.2155  91.0212 0001810  95.7048 264.4150 15.08827765214669","mean_motion":15.08827765,"eccentricity":0.000181,"inclination_deg":53.2155,"raan_deg":91.0212,"arg_perigee_deg":95.7048,"mean_anomaly_deg":264.415,"bstar":-0.00014632,"rev_number":21466,"period_min":95.438328575561,"perigee_km":538.52864359773,"apogee_km":541.03292983652,"semimajor_km":6917.9177867171,"source":"CELESTRAK","updated_at":"2026-05-25T13:38:17.284847Z"}}}